This demonstration page uses our WeatherBlox Daily Observations layout. Learn more.

Left ArrowRight Arrow

39.29038, -76.61219

Hourly Observations for July 6, 2021

Temp ( °F °C ) Dew Point ( °F °C ) Humidity (%) Winds ( mph kmh ) Pressure ( in mb ) Visibility ( mi km ) Precip ( " mm )
12:54 am 00:54 Clear 76 24.4 66 18.9 72 72 SSW 5 7 30.05 1018 10 16 N/A
1:54 am 01:54 Clear 75 23.9 66 18.9 74 74 SW 6 9 30.04 1017 10 16 N/A
2:54 am 02:54 Clear 74 23.3 66 18.9 76 76 N N/A 30.04 1017 10 16 N/A
3:54 am 03:54 Clear 73 22.8 66 18.9 79 79 SW 3 6 30.04 1017 10 16 N/A
4:54 am 04:54 Clear 73 22.8 66 18.9 79 79 N N/A 30.03 1017 10 16 N/A
5:54 am 05:54 Mostly Sunny 73 22.8 67 19.4 81 81 SW 3 6 30.04 1017 10 16 N/A
6:54 am 06:54 Mostly Sunny 74 23.3 68 20 82 82 WSW 3 6 30.04 1017 10 16 N/A
7:54 am 07:54 Mostly Sunny 78 25.6 69 20.6 74 74 WSW 7 11 30.05 1018 10 16 N/A
8:54 am 08:54 Mostly Sunny 82 27.8 69 20.6 65 65 W 7 11 30.06 1018 10 16 N/A
9:54 am 09:54 Mostly Sunny 86 30 70 21.1 59 59 W 8 13 30.05 1018 10 16 N/A
10:54 am 10:54 Sunny 90 32.2 71 21.7 54 54 W 10 17 30.04 1017 10 16 N/A
11:54 am 11:54 Mostly Sunny 91 32.8 72 22.2 54 54 VRB 5 7 30.03 1017 10 16 N/A
12:54 pm 12:54 Partly Cloudy 94 34.4 71 21.7 48 48 SSW 9 15 30.02 1017 10 16 N/A
1:54 pm 13:54 Partly Cloudy 94 34.4 72 22.2 49 49 W 10 17 30.00 1016 10 16 N/A
2:54 pm 14:54 Mostly Sunny 95 35 70 21.1 44 44 SW 10 17 29.98 1015 10 16 N/A
3:54 pm 15:54 Mostly Sunny 96 35.6 71 21.7 44 44 SW 13 20 29.96 1015 10 16 N/A
4:54 pm 16:54 Mostly Sunny 95 35 70 21.1 44 44 SSW 10 17 29.95 1014 10 16 N/A
5:54 pm 17:54 Mostly Sunny 93 33.9 71 21.7 49 49 SSW 13 20 29.94 1014 10 16 N/A
6:54 pm 18:54 Mostly Sunny 92 33.3 71 21.7 51 51 SSW 9 15 29.94 1014 10 16 N/A
7:54 pm 19:54 Partly Cloudy 90 32.2 70 21.1 52 52 SW 9 15 29.94 1014 10 16 N/A
8:54 pm 20:54 Partly Cloudy 87 30.6 69 20.6 55 55 SSW 6 9 29.96 1014 10 16 N/A
10:54 pm 22:54 Partly Cloudy 85 29.4 71 21.7 63 63 SSW 5 7 29.97 1015 7 11 N/A

Powered by AerisWeather